Redding, CA

8:09 AM PDT on April 26, 2018 (GMT -0700)
Redding Municipal

Weather History for KRDD - January, 2013

Change the Weather History Date:

Saturday, January 12, 2013

  Actual Average Record
Temperature  
Mean Temperature 37 °F -  
Max Temperature 48 °F 54 °F 75 °F (2009)
Min Temperature 25 °F 36 °F 25 °F (2013)
Degree Days  
Heating Degree Days 28    
Cooling Degree Days 0    
Moisture  
Dew Point 16 °F    
Average Humidity 53    
Maximum Humidity 81    
Minimum Humidity 24    
Precipitation  
Precipitation 0.00 in 0.21 in 1.49 in (2003)
Month to date precipitation 0.13 2.41  
Year to date precipitation 0.13 2.41  
Since 1 July precipitation 19.29  
Sea Level Pressure  
Sea Level Pressure 30.21 in    
Wind  
Wind Speed 6 mph (North)    
Max Wind Speed 17 mph    
Max Gust Speed 24 mph    
Visibility 10 miles    
Events      
T = Trace of Precipitation, MM = Missing Value Source: NWS Daily Summary

Daily Weather History Graph

Daily Weather History Graph

Search for Another Location

Airport or City:

Astronomy

Jan. 12, 2013 Rise Set
Actual Time 7:31 AM PST 5:04 PM PST
Civil Twilight 7:01 AM PST 5:34 PM PST
Nautical Twilight 6:27 AM PST 6:08 PM PST
Astronomical Twilight 5:54 AM PST 6:40 PM PST
Moon 7:53 AM PST (1/12) 6:40 PM PST (1/12)
Length of Visible Light 10h 33m
Length of Day
9h 32m
New Moon, 2% of the Moon is Illuminated
Jan 12
New Moon
Jan 18
First Quarter
Jan 26
Full
Feb 3
Last Quarter
Feb 9
New

Hourly Weather History & Observations

Time (PST) Temp. Windchill Dew Point Humidity Pressure Visibility Wind Dir Wind Speed Gust Speed Precip Events Conditions
12:53 AM 33.1 °F 26.9 °F 23.0 °F 66% 30.22 in 10.0 mi NW 6.9 mph - N/A   Clear
1:53 AM 34.0 °F 28.0 °F 21.9 °F 61% 30.24 in 10.0 mi North 6.9 mph - N/A   Clear
2:53 AM 34.0 °F 28.8 °F 19.0 °F 54% 30.23 in 10.0 mi North 5.8 mph - N/A   Clear
3:53 AM 32.0 °F 27.5 °F 19.0 °F 59% 30.23 in 10.0 mi North 4.6 mph - N/A   Clear
4:53 AM 28.9 °F 25.2 °F 19.0 °F 67% 30.22 in 10.0 mi NNW 3.5 mph - N/A   Clear
5:53 AM 28.0 °F 22.8 °F 19.0 °F 69% 30.24 in 10.0 mi NW 4.6 mph - N/A   Clear
6:53 AM 25.0 °F - 19.0 °F 78% 30.25 in 10.0 mi Calm Calm - N/A   Clear
7:53 AM 34.0 °F 28.0 °F 16.0 °F 48% 30.25 in 10.0 mi North 6.9 mph - N/A   Clear
8:53 AM 36.0 °F 33.3 °F 18.0 °F 48% 30.25 in 10.0 mi North 3.5 mph - N/A   Clear
9:53 AM 39.0 °F 33.4 °F 15.1 °F 38% 30.25 in 10.0 mi North 8.1 mph 18.4 mph N/A   Clear
10:53 AM 42.1 °F 35.2 °F 12.9 °F 31% 30.23 in 10.0 mi North 12.7 mph - N/A   Clear
11:53 AM 44.1 °F 39.0 °F 12.9 °F 28% 30.19 in 10.0 mi NNW 9.2 mph - N/A   Clear
12:53 PM 46.0 °F 41.0 °F 12.9 °F 26% 30.16 in 10.0 mi North 10.4 mph - N/A   Clear
1:53 PM 48.0 °F - 14.0 °F 26% 30.15 in 10.0 mi North 5.8 mph - N/A   Overcast
2:53 PM 46.9 °F - 12.9 °F 25% 30.15 in 10.0 mi North 8.1 mph - N/A   Overcast
3:53 PM 46.0 °F 43.1 °F 17.1 °F 31% 30.15 in 10.0 mi NNE 5.8 mph - N/A   Clear
4:53 PM 44.6 °F 41.4 °F 15.8 °F 31% 30.14 in 10.0 mi North 5.8 mph - N/A   Partly Cloudy
5:53 PM 42.1 °F 35.7 °F 10.9 °F 28% 30.17 in 10.0 mi North 11.5 mph - N/A   Partly Cloudy
6:53 PM 37.9 °F 31.5 °F 12.9 °F 36% 30.19 in 10.0 mi North 9.2 mph - N/A   Clear
7:53 PM 39.0 °F 31.4 °F 12.9 °F 34% 30.18 in 10.0 mi North 12.7 mph - N/A   Clear
8:53 PM 36.0 °F 32.1 °F 14.0 °F 41% 30.21 in 10.0 mi WNW 4.6 mph - N/A   Clear
9:53 PM 37.9 °F 32.7 °F 12.9 °F 36% 30.22 in 10.0 mi North 6.9 mph 17.3 mph N/A   Clear
10:53 PM 35.1 °F - 12.9 °F 40% 30.23 in 10.0 mi Calm Calm - N/A   Clear
11:53 PM 37.0 °F 30.4 °F 12.0 °F 36% 30.22 in 10.0 mi North 9.2 mph - N/A   Clear